Wind_Speed
96 96 97 97 98 98 99 99 99 100 100 101 101 101 101 101 101 100 100 99 98 98 97 97 96 95 94 94 94 94 93 93 93 93 93 93 92 91 90 90 89 89 89 89 89 88 87 86 86 84 82 80 78 77 76 75 74 73 72 71 69 67 65 62 61 59 58 57 56 54 53 52 51 50 50 51 51 52 53 54 54 54 53 53 53 52
97 97 97 98 98 99 99 99 100 100 101 101 101 102 102 102 102 102 101 101 100 99 99 98 97 96 96 95 95 94 94 94 94 94 94 94 93 93 92 91 90 89 89 89 89 89 88 88 87 86 85 83 81 79 77 76 75 74 73 72 70 69 67 65 63 61 59 57 56 54 53 52 52 51 51 51 52 53 54 55 55 55 55 54 54 54
98 98 98 98 99 99 100 100 100 100 101 101 102 102 102 103 103 103 103 102 102 101 100 100 99 98 97 96 95 95 95 95 95 95 95 95 95 94 93 92 91 90 89 88 88 88 88 88 88 87 87 85 83 81 79 78 76 75 73 72 71 69 68 66 65 63 60 58 57 55 54 53 52 52 52 52 53 55 56 56 56 56 56 56 56 55
99 99 99 99 99 99 100 100 100 101 101 101 102 102 102 103 103 103 103 103 103 103 102 101 100 99 98 97 96 96 95 95 95 95 95 95 95 95 94 94 93 91 90 89 88 88 88 87 87 87 87 86 85 83 81 79 77 76 75 73 72 70 69 67 66 64 62 60 58 56 55 54 53 53 53 54 55 56 57 57 57 57 58 58 57 57
100 100 100 100 100 100 100 100 100 101 101 101 102 102 102 103 103 103 104 104 104 104 104 103 102 101 100 98 97 97 96 96 96 96 96 95 95 95 95 95 94 93 92 90 89 88 87 87 86 86 86 85 85 84 82 80 79 77 76 75 73 72 70 69 67 66 63 61 59 58 56 55 55 55 55 56 57 58 59 59 59 59 59 59 59 58
101 101 101 101 101 101 101 101 101 101 101 101 102 102 102 102 103 103 104 104 104 105 105 104 103 102 101 100 99 98 97 97 97 96 96 96 96 95 95 95 95 94 93 92 91 89 88 87 86 85 85 85 84 84 83 82 80 79 78 76 75 73 72 70 69 67 65 63 61 59 58 57 57 57 57 58 59 61 61 61 61 60 60 60 60 59
102 101 101 102 102 101 101 101 101 101 101 101 102 102 102 102 102 103 103 104 104 105 105 104 104 103 102 101 100 99 98 98 97 97 97 96 96 96 96 96 95 95 95 94 93 91 90 88 87 86 86 85 85 85 84 83 82 81 80 78 77 75 74 72 70 68 66 65 63 61 60 60 59 59 60 61 62 63 63 63 62 62 62 61 61 60
102 102 102 102 102 102 102 102 102 101 101 101 102 102 102 102 102 102 103 103 104 104 104 104 104 104 103 102 101 100 100 99 98 98 97 97 97 97 97 97 96 96 95 95 94 93 92 91 89 88 87 87 86 86 85 85 84 84 82 81 79 78 76 74 72 71 69 68 66 65 64 63 63 63 63 64 64 65 65 65 64 63 63 62 62 61
103 103 103 103 102 102 103 102 102 102 101 102 102 102 102 102 102 102 102 103 103 104 104 104 104 103 103 103 102 101 101 100 99 98 98 98 98 98 98 98 97 97 96 96 95 94 93 92 91 90 89 88 87 87 87 87 86 86 85 84 83 81 79 78 76 74 73 72 70 69 68 67 67 66 66 66 66 67 66 66 65 65 64 63 63 62
104 104 103 103 103 103 103 103 102 102 101 102 102 102 101 102 102 102 102 103 103 103 103 103 103 103 103 103 102 102 101 100 100 99 99 99 99 99 99 99 98 98 97 96 95 95 94 93 93 92 91 90 89 89 88 88 88 88 87 87 86 85 83 81 80 78 77 76 75 74 73 72 71 70 69 69 68 67 67 66 66 65 65 64 64 63
104 104 104 103 103 103 103 103 102 102 101 102 102 102 101 101 101 101 102 102 102 102 102 102 102 102 102 102 102 102 101 101 100 99 99 99 100 100 100 100 99 98 97 96 96 95 95 94 93 93 92 91 91 90 90 89 89 89 89 89 88 87 86 85 83 82 81 79 78 77 76 75 73 72 71 70 69 68 67 67 66 66 65 66 66 65
104 104 104 103 103 103 103 103 102 102 102 102 102 102 101 101 101 101 101 101 101 101 101 102 102 102 102 102 102 102 101 101 100 99 99 99 100 101 101 101 100 98 97 96 95 95 95 94 94 94 93 93 92 92 91 91 90 90 90 90 90 89 89 87 86 85 84 82 81 79 78 77 75 74 72 71 69 68 67 67 66 66 66 67 67 67
104 104 104 104 103 103 103 103 103 102 102 102 102 102 102 101 100 100 101 101 101 101 101 101 101 101 101 101 101 101 101 100 99 98 98 99 100 101 102 102 101 99 97 95 95 95 95 95 94 94 94 94 93 93 92 92 92 91 91 90 90 90 90 89 89 88 86 85 83 82 80 79 77 76 74 72 71 69 68 68 67 67 67 68 69 69
105 104 104 104 104 104 103 103 103 103 103 102 102 102 102 101 101 100 100 100 100 100 100 100 101 101 101 101 100 100 100 100 99 98 97 98 99 100 102 103 102 100 97 95 95 95 95 95 95 95 95 94 94 94 93 93 93 92 92 91 91 90 90 90 89 89 89 88 87 85 84 82 80 79 77 76 74 72 71 70 70 70 70 70 71 71
105 105 104 104 104 104 104 103 103 103 103 103 102 102 102 102 101 101 101 100 100 100 99 100 101 101 101 101 100 100 99 99 98 98 97 97 97 99 101 103 104 102 98 95 95 95 95 95 95 95 95 95 94 94 94 94 94 93 93 92 91 91 90 89 89 89 89 89 89 88 87 86 85 84 82 80 79 77 76 75 74 74 73 73 74 74
105 105 105 105 104 104 104 104 104 104 103 103 103 102 102 102 102 102 101 101 100 99 99 100 100 101 101 101 100 99 99 99 98 98 97 97 97 97 99 101 103 103 100 97 95 95 95 95 95 95 95 95 95 95 94 94 94 94 93 93 92 91 90 89 89 88 88 88 89 89 89 89 88 88 87 86 84 83 82 81 80 79 78 78 78 77
105 105 105 105 105 104 104 104 104 104 103 103 103 103 103 103 102 102 101 101 100 99 99 99 100 101 101 101 100 99 99 98 98 97 97 96 97 97 98 99 101 102 101 98 96 95 95 96 95 95 95 95 94 95 95 95 94 94 93 93 92 91 91 90 89 89 88 88 88 88 89 89 90 90 89 89 88 88 87 86 85 84 83 82 82 81
105 105 105 105 105 105 104 104 104 104 104 103 103 103 103 103 103 102 102 101 100 100 99 99 100 100 101 101 101 100 99 98 98 97 96 97 97 97 97 98 99 100 100 98 97 96 95 95 95 95 95 94 94 94 94 94 94 94 93 93 92 92 91 91 90 89 89 89 88 88 88 89 89 90 90 90 90 90 89 89 88 87 87 86 85 84
105 105 105 105 105 105 104 104 104 104 104 104 103 103 103 103 103 103 102 102 101 101 100 100 100 100 100 101 101 100 99 99 98 97 97 97 97 97 97 98 98 99 99 98 97 96 95 95 95 95 94 94 94 94 94 94 94 94 93 93 92 92 91 91 91 90 90 89 89 89 88 88 89 89 89 90 90 90 90 90 90 89 89 88 88 87
105 105 105 105 105 105 105 104 104 104 104 104 104 104 104 103 103 103 103 102 102 101 101 100 100 100 100 100 100 100 100 99 98 98 97 97 98 98 98 98 98 98 98 97 97 96 95 95 95 94 94 94 94 93 93 93 93 93 92 92 91 91 91 91 91 91 90 90 90 89 89 89 89 89 89 89 89 89 89 89 90 89 89 89 89 88
105 105 105 105 105 105 105 105 104 104 104 104 104 104 104 104 103 103 103 103 102 102 101 101 101 100 100 100 100 100 100 99 98 98 98 98 98 99 99 99 99 99 98 97 96 95 95 95 94 94 94 93 93 93 93 93 93 92 92 91 90 90 90 90 90 90 90 90 90 89 89 89 89 89 89 88 88 88 88 88 88 89 89 89 88 88
105 105 105 105 105 105 105 105 104 104 104 104 104 104 104 104 104 103 103 103 102 102 102 101 101 100 100 100 101 100 100 99 99 98 98 98 99 100 100 100 100 100 99 98 96 95 94 94 94 94 94 93 93 93 93 93 92 92 91 90 89 89 89 89 89 89 89 89 89 89 89 88 88 88 88 88 88 87 87 87 87 87 87 87 87 87
105 105 105 105 105 105 105 104 104 104 104 104 104 103 103 103 103 103 103 102 102 102 101 101 100 100 100 100 100 100 99 99 98 98 98 98 99 101 101 101 101 101 100 98 96 95 94 94 94 94 94 94 93 93 93 93 92 92 91 90 89 88 88 88 87 87 87 87 87 87 87 87 87 87 87 87 87 86 86 86 86 86 86 86 86 86
104 104 104 104 104 104 104 104 104 103 103 103 102 102 102 102 102 102 101 101 101 100 100 100 99 99 99 99 99 99 99 98 97 97 97 98 99 100 101 102 103 102 101 98 96 95 94 94 94 94 94 94 94 94 93 93 93 92 91 90 90 89 89 88 87 87 86 86 86 86 86 86 86 86 86 85 85 85 85 85 84 84 84 84 84 84
102 102 102 102 102 102 102 102 102 102 101 101 100 100 100 99 99 99 99 99 99 99 98 98 98 98 98 98 98 97 97 96 96 96 96 96 97 99 101 102 103 103 101 99 96 94 93 94 94 95 95 95 94 94 94 94 94 93 92 92 91 91 90 89 88 87 86 85 85 84 84 84 84 84 84 84 84 83 83 83 83 83 83 83 83 83
99 99 99 99 99 99 99 99 99 99 99 99 98 98 97 97 96 96 96 96 96 96 95 95 95 95 95 95 95 95 95 94 93 93 93 94 95 97 99 101 103 103 102 99 95 92 91 92 94 95 95 95 95 94 94 94 94 94 94 93 93 93 92 91 90 88 87 86 84 84 83 83 82 82 82 82 82 82 82 82 82 82 82 82 82 82
97 97 97 96 96 96 96 96 96 96 96 96 96 95 95 94 94 94 94 93 93 92 92 92 92 92 92 92 92 92 92 91 91 90 90 91 92 94 97 99 101 102 102 99 94 90 87 89 92 94 96 96 95 94 94 94 95 95 95 95 95 94 94 93 92 90 88 86 85 84 83 82 81 81 80 80 80 80 80 80 80 81 81 81 81 81
96 95 95 95 95 94 94 93 93 93 93 93 93 93 92 92 92 92 92 92 91 90 90 90 90 90 90 90 90 90 89 89 88 88 88 88 89 91 93 96 98 100 101 98 93 87 83 85 89 93 95 96 95 94 94 94 95 96 96 96 96 95 95 94 93 91 89 87 86 85 83 82 81 80 80 79 79 79 79 79 79 80 80 80 80 80
94 94 95 95 94 94 94 93 93 92 92 91 91 91 91 91 91 91 92 91 90 89 89 89 89 89 88 88 88 88 88 87 87 86 86 85 87 88 90 93 95 97 98 96 91 85 81 82 87 92 95 95 94 93 93 94 95 96 97 97 97 96 95 95 94 93 91 89 87 86 85 83 82 81 80 79 79 79 78 78 78 79 79 78 78 78
94 94 94 94 94 94 94 94 94 94 93 92 92 91 91 91 91 91 91 91 90 90 90 90 89 89 88 88 88 88 88 88 87 86 84 84 85 86 87 89 92 94 94 92 88 83 80 82 86 90 93 93 92 92 92 93 95 96 97 97 96 96 95 95 95 93 92 91 89 87 86 84 83 82 81 80 79 78 78 78 78 78 78 77 77 77
94 94 94 94 94 94 95 95 95 95 95 95 94 93 93 92 92 92 92 91 91 91 91 91 91 90 89 89 89 89 89 89 87 86 85 85 85 85 86 87 89 90 90 88 84 81 80 81 85 88 90 90 90 90 90 92 94 95 95 95 95 95 95 95 94 94 93 91 90 88 86 85 83 82 81 80 79 79 78 78 78 78 77 77 76 76
96 95 95 95 94 94 94 95 95 95 96 96 96 96 95 94 94 93 93 93 92 92 92 92 92 92 91 91 91 91 91 90 89 87 86 86 86 86 86 86 87 87 87 84 81 79 79 81 83 86 87 87 87 87 88 90 91 92 93 93 93 94 94 94 93 93 92 91 89 88 86 85 83 82 81 80 79 79 78 78 78 77 77 76 75 75
97 97 96 96 96 95 95 95 95 95 95 96 96 96 96 96 96 95 95 94 93 93 93 93 93 93 93 93 93 93 93 92 91 89 88 87 87 87 87 87 87 87 86 83 80 78 77 79 81 83 84 84 84 84 85 86 88 89 90 91 91 92 92 92 92 91 91 90 88 87 85 84 83 82 81 80 79 78 78 78 78 77 76 75 75 74
98 98 97 97 97 96 96 95 95 95 95 95 96 96 96 97 97 96 96 96 95 94 94 94 94 94 94 94 94 94 94 94 93 91 89 88 88 89 88 88 88 87 86 84 81 78 76 77 80 81 82 81 81 80 81 83 85 87 88 89 89 90 90 89 89 89 88 88 87 85 84 83 82 81 81 80 78 77 77 77 77 76 76 75 74 73
98 98 98 98 98 98 97 97 96 96 95 95 95 95 96 96 96 97 97 97 96 96 95 95 94 94 94 94 95 95 96 95 95 93 91 90 90 90 89 90 89 89 88 86 83 80 77 77 78 80 81 80 78 78 78 80 83 85 87 87 87 87 87 86 86 86 86 85 85 84 83 82 81 81 80 79 77 76 76 75 75 75 75 74 73 72
99 99 99 99 99 99 98 98 97 97 96 96 95 95 95 95 96 96 97 97 97 97 96 96 95 95 95 95 95 96 96 96 96 94 93 92 92 91 91 91 91 90 89 88 86 83 80 78 78 80 80 79 78 76 76 78 81 84 86 86 85 83 83 83 83 83 83 83 83 83 82 81 81 80 79 78 76 75 74 74 74 74 73 73 72 71
99 99 99 99 99 99 99 99 98 98 97 97 96 96 95 95 95 96 96 97 97 97 97 97 97 96 96 96 96 96 96 96 96 96 95 95 93 93 92 92 92 91 90 90 88 86 83 80 79 80 81 81 79 77 75 76 79 83 86 85 82 80 79 79 79 80 81 81 82 81 81 80 79 79 78 76 75 74 73 72 72 72 72 71 71 70
98 99 99 99 99 99 99 99 99 99 98 98 97 97 96 96 95 95 96 96 97 97 97 98 98 97 97 97 96 96 96 96 96 96 96 96 95 94 94 93 93 92 92 91 90 88 86 83 82 81 82 82 80 79 77 76 79 83 86 84 80 77 76 76 77 78 79 79 80 80 80 79 78 77 76 75 74 73 72 71 71 71 70 70 70 69
98 98 99 99 99 99 99 99 99 99 99 98 98 97 97 96 96 96 96 96 96 97 97 98 98 98 98 98 97 97 97 97 97 97 97 97 96 96 95 94 94 93 93 92 91 90 89 86 85 83 83 82 82 81 79 78 80 83 85 84 80 75 74 74 75 76 77 77 78 78 78 78 77 76 75 74 73 72 71 70 70 69 69 69 69 69
98 98 98 98 98 99 99 99 99 99 98 98 98 98 97 97 96 96 96 96 96 96 97 98 98 99 99 99 99 98 98 98 97 97 97 97 97 96 96 95 95 94 94 93 93 92 91 89 87 85 84 83 83 82 81 81 81 83 85 84 80 75 73 73 74 75 76 75 75 75 75 75 76 75 75 73 72 71 70 69 68 68 68 68 69 69
97 97 97 97 97 97 98 98 98 98 97 97 97 97 97 97 96 96 96 95 95 96 96 97 97 98 99 99 100 99 99 99 98 98 97 97 97 97 97 96 96 95 94 94 94 93 93 92 90 88 86 85 84 83 83 82 83 84 85 84 80 76 73 74 74 75 74 73 72 71 71 73 74 75 74 73 72 70 69 68 67 66 66 67 67 68
95 95 96 96 96 96 96 96 96 96 96 96 95 95 95 95 95 95 95 94 94 94 95 95 96 97 98 99 100 100 100 99 99 98 98 97 97 97 97 97 96 96 95 95 95 95 94 94 92 91 89 87 86 85 84 84 84 85 86 85 81 76 74 74 75 75 73 72 70 69 69 71 72 73 73 73 71 70 69 67 66 65 65 65 65 66
93 93 93 93 93 93 93 93 93 93 93 93 93 93 93 93 93 93 93 93 93 93 93 93 94 95 96 97 98 99 100 100 99 99 98 98 97 97 97 97 97 96 96 96 96 96 95 95 94 93 92 90 88 87 86 85 85 86 87 86 82 77 75 76 76 75 73 71 70 69 70 70 71 72 72 71 70 69 68 67 66 65 64 63 63 64
91 90 90 90 90 90 90 90 90 90 90 90 90 90 91 91 91 91 91 91 91 91 91 91 92 93 94 95 96 98 98 99 99 99 98 98 97 97 97 97 97 97 97 97 97 97 96 96 95 95 94 92 90 89 88 87 87 88 89 88 83 79 76 77 77 76 74 72 71 71 70 70 70 70 70 70 69 68 67 66 65 64 63 62 62 62
88 88 87 87 87 87 88 88 88 88 88 88 88 88 88 88 88 88 88 89 89 89 89 89 90 91 92 93 94 95 96 97 98 98 98 98 97 97 96 96 96 97 97 97 97 97 97 97 97 96 95 93 92 91 90 89 89 90 90 89 85 81 78 78 78 77 75 74 73 72 72 71 70 69 69 69 68 67 66 65 65 64 63 62 61 61
86 85 85 85 85 85 85 85 85 85 85 86 86 86 86 86 86 86 86 87 87 87 87 88 88 89 90 91 92 93 94 95 96 97 97 97 97 97 96 96 96 96 96 97 97 98 98 97 97 97 96 95 94 93 92 92 91 92 92 91 87 83 80 79 79 78 77 76 74 74 73 71 70 69 69 69 68 67 65 65 64 64 63 62 61 61
83 83 82 82 82 82 82 82 83 83 83 83 83 84 84 84 84 84 84 85 85 85 85 86 86 87 88 89 90 91 92 93 94 95 96 96 96 96 96 96 95 95 95 96 97 97 98 98 98 97 96 96 95 95 94 94 93 94 94 92 89 85 82 81 80 80 79 77 76 75 74 72 71 70 70 69 68 67 65 64 64 63 63 62 61 61
81 80 80 80 79 79 79 80 80 80 80 81 81 81 81 81 82 82 82 83 83 83 84 84 84 85 86 87 88 89 90 91 92 93 94 94 95 95 95 95 95 95 95 95 96 96 97 98 98 98 97 97 97 96 96 95 95 95 95 93 91 88 85 83 82 82 81 79 78 76 75 74 73 72 71 70 68 67 65 64 63 63 63 63 62 62
78 78 77 77 77 77 77 77 77 77 78 78 78 79 79 79 79 79 80 80 81 81 81 82 83 83 84 85 86 87 88 89 90 91 92 92 93 94 94 95 94 94 94 94 94 95 96 97 98 98 98 98 98 97 97 96 96 96 96 94 92 90 87 85 84 83 83 82 80 79 77 76 75 74 72 71 69 68 66 64 64 63 63 63 63 63
76 75 75 74 74 74 74 74 74 74 75 75 75 76 76 76 77 77 77 78 78 79 79 80 80 81 82 83 84 85 86 87 88 89 89 90 91 92 93 93 94 94 94 94 93 94 94 95 96 97 98 98 98 98 98 98 97 97 96 95 93 91 89 87 86 85 85 84 83 81 79 78 77 75 74 73 71 70 68 66 64 64 64 64 64 64
73 73 72 72 72 72 71 71 71 72 72 72 73 73 73 74 74 74 75 75 76 76 77 77 78 79 80 81 81 82 83 84 85 86 87 88 89 90 91 92 92 93 93 93 93 93 93 94 95 96 97 98 98 98 98 98 98 98 97 96 95 93 91 89 88 87 87 86 85 84 82 80 78 77 76 75 73 72 70 68 66 65 64 64 65 65
Wind_Direction
262 263 263 264 264 265 265 266 267 267 268 269 269 270 270 271 271 271 271 271 271 271 271 272 272 272 272 272 272 272 272 273 273 273 274 274 274 275 275 275 275 276 276 277 278 278 279 279 279 279 279 279 279 279 278 278 278 279 279 280 280 280 280 279 279 278 278 279 279 279 279 279 279 279 279 279 279 280 281 283 284 286 287 289 290 291
263 263 263 264 264 264 265 265 266 267 267 268 268 269 270 270 271 271 271 271 271 271 271 271 271 271 271 271 271 271 271 272 272 272 273 273 274 274 274 274 274 275 275 276 277 277 278 278 279 279 280 279 279 279 278 278 278 278 278 279 280 280 280 280 280 280 279 279 279 279 279 279 279 278 278 278 278 279 280 281 283 285 286 288 289 290
264 264 264 264 264 264 265 265 266 266 267 267 268 268 269 270 270 271 271 271 271 271 271 271 271 271 271 271 271 271 271 271 271 272 272 272 273 273 273 274 274 274 274 274 275 276 277 277 278 279 280 280 280 279 279 279 278 278 278 279 279 279 280 280 281 281 280 280 279 279 279 278 278 278 278 278 278 278 279 280 282 283 285 286 288 289
264 264 264 264 264 265 265 265 266 266 266 267 267 268 268 269 269 270 271 271 271 272 272 272 271 271 271 271 271 271 271 271 271 271 271 272 272 273 273 273 273 273 273 273 273 274 274 275 276 277 278 279 280 280 279 279 279 279 278 279 279 279 279 280 280 281 281 280 280 280 279 279 278 278 278 278 277 277 278 279 281 282 284 285 287 288
265 265 265 265 265 265 266 266 266 266 267 267 267 267 268 268 269 269 270 270 271 271 271 272 272 272 272 271 271 271 271 271 271 271 271 271 272 272 272 273 273 273 273 272 272 272 272 273 273 274 275 276 277 278 278 278 278 278 278 278 278 278 279 279 280 280 280 280 280 280 279 279 278 278 278 277 277 277 278 279 280 282 283 284 285 286
266 266 266 266 266 266 267 267 267 267 267 267 267 267 268 268 268 269 269 270 270 271 271 271 272 272 272 272 272 272 271 271 271 271 271 271 271 271 271 272 272 272 272 272 271 271 271 270 271 271 271 272 273 274 275 276 276 277 277 277 278 278 278 279 279 280 280 280 280 279 279 278 278 277 277 276 277 277 278 279 280 281 282 283 284 285
267 267 267 267 267 267 267 267 267 267 267 267 268 268 268 268 268 269 269 269 270 270 270 271 271 272 272 272 272 272 272 272 271 271 271 271 271 271 271 271 271 271 271 271 271 270 270 270 269 269 269 269 269 270 271 272 273 274 275 275 276 276 277 277 278 278 278 278 278 277 277 276 276 276 275 276 276 277 278 279 280 281 281 282 283 283
268 268 268 268 268 268 268 268 268 268 268 268 268 268 268 268 268 268 269 269 269 270 270 271 271 271 272 272 272 272 272 272 272 271 271 271 271 271 271 270 270 270 270 270 270 270 270 269 269 268 268 267 267 267 268 268 269 270 271 272 273 273 274 274 275 275 275 275 275 275 274 274 274 274 274 275 276 277 278 279 280 280 281 281 281 282
268 268 268 268 268 268 268 268 268 268 268 268 268 268 268 268 268 269 269 269 269 269 270 270 271 271 271 272 272 272 272 272 272 272 271 271 271 271 270 270 270 270 270 270 270 270 270 269 269 268 268 267 266 266 265 266 266 267 268 269 270 270 271 271 271 272 272 272 272 272 272 272 272 273 273 274 275 276 277 278 279 280 280 280 280 281
267 268 268 268 268 268 268 268 268 268 268 268 268 268 268 268 268 268 268 269 269 269 269 270 270 270 271 271 271 271 272 272 272 272 272 271 271 271 270 270 270 270 270 270 270 270 270 269 269 269 268 268 267 266 265 264 264 264 265 266 267 267 268 268 269 269 270 270 270 270 271 271 272 272 273 274 275 276 277 278 278 279 279 279 279 279
267 267 267 267 267 267 268 268 268 268 268 268 268 268 268 268 268 268 268 268 269 269 269 269 270 270 270 270 271 271 271 271 271 271 271 271 271 271 271 270 270 270 270 270 270 270 270 269 269 269 268 268 267 267 266 265 264 263 263 263 264 265 265 266 267 267 268 268 269 269 270 270 271 272 272 273 274 275 276 276 277 277 278 278 278 279
267 267 267 267 267 267 267 267 267 267 267 267 267 267 267 267 267 267 268 268 268 268 269 269 269 269 269 269 270 270 270 270 271 271 271 271 271 271 271 270 270 270 270 270 270 270 270 270 269 269 268 268 267 267 266 265 265 264 263 262 262 262 263 264 264 265 265 266 267 268 268 269 270 271 271 272 273 274 274 275 275 276 276 277 278 278
267 267 267 267 267 267 267 267 267 267 267 267 267 267 267 267 267 267 267 267 268 268 268 268 268 268 268 268 269 269 269 269 270 270 270 270 270 271 271 271 271 270 270 270 270 270 270 269 269 269 268 268 267 267 266 266 265 265 264 263 262 261 261 262 262 262 263 264 264 265 266 267 267 268 269 270 271 272 272 273 273 274 275 276 276 278
267 267 267 267 267 268 268 268 268 268 267 267 267 267 267 268 267 267 267 267 267 267 267 267 268 268 268 268 268 268 268 268 269 269 269 269 269 270 270 271 271 271 270 270 270 270 269 269 269 268 268 268 267 267 266 266 266 265 265 264 263 262 261 261 261 261 261 262 262 263 263 264 264 265 266 267 268 269 270 270 271 272 273 274 275 276
268 268 268 268 268 268 268 268 268 268 268 268 268 268 268 268 268 267 267 267 267 267 267 267 267 267 267 267 268 268 268 268 268 268 268 268 268 268 269 270 271 271 271 270 269 269 269 269 268 268 268 268 267 267 267 266 266 266 265 265 264 263 263 262 261 261 260 260 261 261 261 261 262 263 263 264 265 266 267 268 269 270 271 272 273 274
268 268 268 268 269 269 269 269 269 269 269 269 269 269 268 268 268 268 268 267 267 267 267 267 267 267 267 268 268 267 267 267 267 267 267 267 267 267 267 268 269 270 271 270 269 269 269 268 268 268 268 268 267 267 267 266 266 266 266 265 265 264 264 263 262 262 261 260 260 260 260 260 260 261 261 262 262 263 264 265 266 267 268 270 271 272
269 269 269 269 269 269 269 269 269 269 269 269 269 269 269 269 269 269 268 268 268 267 267 267 267 267 267 268 268 268 267 267 267 267 267 266 266 266 266 266 267 269 270 270 269 269 268 268 268 268 268 267 267 267 267 267 266 266 266 266 266 265 265 264 263 262 262 261 260 260 260 260 260 260 260 260 261 261 262 263 264 265 266 268 269 270
269 269 269 269 269 269 269 269 269 269 269 269 269 269 269 269 269 269 269 269 268 268 268 267 267 267 267 268 268 268 268 267 267 267 267 266 266 266 266 265 266 267 268 268 268 268 268 268 268 267 267 267 267 267 267 266 266 266 266 266 266 266 265 265 264 263 262 262 261 260 260 260 259 259 259 260 260 260 261 261 262 263 264 265 267 268
269 269 269 269 269 270 270 270 270 270 269 269 269 269 269 269 269 269 269 269 269 268 268 268 268 267 267 267 268 268 268 268 267 267 267 266 266 266 265 265 265 265 266 267 267 267 267 267 267 267 267 267 267 266 266 266 266 266 266 266 265 265 265 265 264 263 263 262 261 261 260 260 260 259 259 259 259 260 260 260 261 262 262 263 265 266
269 269 269 269 270 270 270 270 270 270 270 270 270 270 270 270 270 269 269 269 269 269 269 268 268 268 268 268 268 268 268 268 267 267 267 266 266 266 265 265 265 265 265 265 265 266 266 266 266 266 266 266 266 266 266 266 265 265 265 265 265 264 264 264 264 263 263 262 262 261 261 260 260 259 259 259 259 259 260 260 260 261 261 262 263 264
269 270 270 270 270 270 270 270 270 270 270 270 270 270 270 270 270 270 270 270 269 269 269 269 268 268 268 268 268 268 267 267 267 267 266 266 266 266 265 265 264 264 264 264 264 264 264 265 265 265 265 265 265 265 265 265 265 265 264 264 264 264 263 263 263 262 262 262 262 261 261 260 260 260 259 259 259 259 259 260 260 260 261 261 262 263
270 270 270 271 271 271 271 271 271 271 271 271 271 271 271 271 270 270 270 270 270 269 269 269 269 268 268 268 267 267 267 267 266 266 266 266 265 265 265 265 265 264 264 264 264 264 264 264 264 264 264 264 264 264 264 264 264 264 264 264 263 263 262 262 262 261 261 261 261 261 261 260 260 260 260 260 259 259 259 259 260 260 260 261 261 262
271 271 271 271 271 271 271 271 271 271 271 271 271 271 271 271 271 271 271 270 270 270 269 269 269 268 268 267 267 267 266 266 266 265 265 265 264 265 265 265 264 264 264 264 263 263 263 263 263 263 263 263 263 263 263 263 264 264 264 263 263 262 262 261 261 261 261 260 260 260 260 260 260 260 260 260 260 259 259 259 259 260 260 260 261 261
271 272 272 272 272 272 272 272 272 272 272 272 271 271 271 271 271 271 271 271 270 270 270 269 269 268 267 267 267 266 266 266 265 265 264 264 264 264 264 264 264 264 264 263 263 263 262 262 262 262 262 262 262 263 263 263 263 263 263 263 263 262 262 261 261 260 260 260 260 260 260 260 260 260 260 260 260 259 259 259 259 259 260 260 260 261
272 272 272 272 272 273 273 273 273 273 272 272 272 272 271 271 271 271 271 271 270 270 270 269 269 268 268 267 267 266 266 265 265 264 263 263 263 263 263 264 264 264 264 263 263 262 262 262 261 261 261 261 261 262 262 262 263 263 263 263 262 262 262 261 261 260 260 260 260 260 260 260 260 260 260 260 260 259 259 259 259 259 259 259 260 260
272 272 272 272 272 272 273 273 273 273 273 273 272 272 272 272 271 271 271 270 270 270 270 269 269 268 268 268 267 266 266 265 265 264 263 262 262 262 262 263 263 264 264 264 263 262 261 261 261 261 261 261 261 261 261 262 262 262 262 262 262 262 261 261 261 260 260 260 260 260 260 260 259 259 259 259 259 259 259 259 259 259 259 259 259 260
273 273 272 272 272 272 272 272 272 272 272 273 273 272 272 272 272 271 271 270 270 270 269 269 269 268 268 268 267 266 266 265 265 264 263 262 261 261 261 262 262 263 264 264 263 262 261 260 260 260 260 260 260 260 260 261 261 261 261 261 261 261 261 261 261 261 261 260 260 260 260 260 259 259 259 259 259 259 259 259 258 258 258 258 258 259
275 274 274 274 273 273 272 272 272 272 272 272 272 272 272 272 271 271 271 270 270 270 269 268 268 268 268 267 267 267 266 265 264 264 263 261 261 260 260 261 261 262 263 264 264 263 261 260 259 259 260 260 260 259 259 259 260 260 260 260 260 261 261 261 261 261 261 261 260 260 260 260 259 259 259 259 258 258 258 258 258 258 257 257 257 257
275 276 276 275 275 275 274 274 273 272 272 272 271 271 271 271 271 271 271 270 270 269 269 268 268 267 267 267 267 266 266 265 264 264 263 261 260 260 260 260 260 261 262 264 264 264 262 259 258 258 259 259 259 259 258 258 258 259 259 260 260 260 261 261 262 262 261 261 261 260 260 259 259 259 258 258 258 258 258 257 257 257 257 256 256 256
275 275 275 276 276 276 276 275 275 274 274 273 272 271 271 270 270 270 270 270 269 269 268 268 268 267 267 266 266 266 265 264 264 264 263 261 260 260 260 259 260 261 262 263 264 264 261 259 258 258 258 259 259 258 258 258 258 258 258 259 260 260 261 261 261 261 261 261 261 260 260 259 259 258 258 258 257 257 257 257 256 256 256 256 256 255
275 275 275 274 274 274 275 275 275 275 274 274 273 272 272 271 270 269 269 269 269 268 268 268 268 267 266 266 265 265 265 264 264 263 263 262 261 261 260 259 260 261 262 263 263 262 261 259 258 257 258 258 258 258 257 257 257 258 258 258 259 259 260 260 260 261 261 261 260 260 260 259 259 258 258 257 257 256 256 256 256 256 255 255 255 255
275 275 274 274 274 273 273 273 273 273 273 273 273 273 272 271 271 270 269 269 268 268 268 267 267 267 266 266 265 265 265 264 264 263 262 262 261 261 260 260 260 260 261 261 261 261 260 258 258 257 257 258 258 257 257 257 257 257 257 258 258 258 259 259 260 260 260 260 260 260 260 259 259 258 258 257 256 256 256 255 255 255 255 255 254 254
276 275 275 274 274 273 272 272 271 271 271 271 272 272 272 271 271 270 269 269 268 267 267 267 266 266 266 266 265 265 264 264 263 263 262 261 261 261 260 260 260 260 260 260 260 259 258 257 257 257 257 257 257 257 257 256 257 257 257 257 257 257 258 258 259 259 260 260 260 260 260 260 259 259 258 257 256 256 255 255 255 255 254 254 254 253
276 276 275 275 274 274 273 272 271 271 270 270 270 270 270 270 270 270 269 269 268 267 266 266 265 265 265 265 264 264 264 264 263 263 262 261 260 260 260 260 260 260 260 260 259 257 256 256 256 256 257 257 257 256 256 256 256 256 256 256 256 257 257 258 258 259 260 260 260 260 260 260 259 259 258 257 256 256 255 255 255 254 254 254 253 253
277 276 276 276 275 275 274 273 272 271 271 270 269 269 269 269 269 269 268 268 267 267 266 265 264 264 263 263 263 263 263 263 263 263 262 261 260 259 260 259 260 260 260 259 258 257 255 255 255 256 256 256 256 255 255 255 255 255 256 255 256 256 257 257 258 258 259 259 260 259 259 259 259 258 258 257 257 256 255 255 254 254 254 253 253 252
277 277 276 276 276 275 275 274 273 272 271 271 270 269 268 268 268 267 267 267 267 266 266 265 264 263 262 262 261 261 262 262 262 262 261 260 260 259 259 259 259 259 259 259 258 257 255 254 254 255 255 255 255 254 254 253 254 254 255 255 255 256 256 256 257 257 258 258 259 259 259 258 258 258 258 257 256 256 255 254 254 254 254 253 253 252
277 277 277 276 276 275 275 274 274 273 272 271 270 269 269 268 267 267 266 266 266 266 265 264 264 263 262 261 260 260 260 260 261 261 260 260 259 259 258 258 258 258 258 258 258 257 256 254 253 253 254 254 254 253 253 252 252 253 254 255 255 255 255 256 256 256 256 257 257 258 258 258 258 257 257 257 256 255 254 254 253 253 253 252 252 251
277 277 277 276 276 275 275 274 274 273 273 272 271 270 269 268 267 266 266 265 265 265 264 264 263 263 262 261 260 259 259 259 259 259 259 259 259 258 258 257 257 257 257 257 257 256 256 254 253 252 253 253 254 253 252 251 251 251 253 255 255 255 255 255 254 254 255 255 256 256 257 257 257 257 257 256 255 254 254 253 252 251 251 251 250 249
277 277 277 276 276 275 275 274 274 273 273 272 271 270 269 268 267 266 265 265 264 264 263 263 263 262 262 261 260 259 258 258 257 257 257 257 257 257 257 257 257 257 256 256 256 256 255 254 253 252 251 252 252 252 252 251 250 251 252 254 255 255 254 253 253 253 253 253 254 255 255 256 257 257 256 256 255 254 252 251 250 249 249 248 248 247
278 277 277 276 276 275 275 274 273 273 272 272 271 270 269 268 267 266 265 264 263 263 262 262 262 262 261 261 260 259 258 257 257 256 256 256 256 256 256 256 256 256 256 256 256 256 255 254 253 252 251 250 250 251 251 250 250 250 251 253 254 253 252 252 252 252 252 252 252 253 253 254 255 256 256 256 255 253 252 250 249 248 247 246 245 245
278 278 277 277 276 275 275 274 273 273 272 271 271 270 269 268 268 267 266 264 263 263 262 261 261 261 261 260 260 259 258 257 257 256 255 255 255 255 255 255 255 255 255 255 255 255 255 255 254 253 251 250 249 249 249 249 249 250 250 251 252 252 251 250 250 250 251 251 251 251 252 252 253 254 255 255 255 254 252 251 249 247 245 244 243 243
279 278 278 277 276 276 275 274 273 273 272 271 271 270 269 268 268 267 266 265 264 263 262 261 260 260 260 259 259 259 258 258 257 256 255 254 254 253 253 253 253 253 253 253 253 254 254 254 254 253 252 251 250 249 249 249 249 250 250 250 250 250 249 249 249 249 249 250 250 250 250 250 251 252 253 254 254 254 253 252 250 247 245 243 242 241
279 279 278 277 277 276 275 274 274 273 272 271 271 270 269 268 267 267 266 265 264 263 262 261 260 259 259 259 259 258 258 258 257 256 255 255 254 253 252 252 252 252 252 252 252 252 252 253 253 253 253 252 251 250 249 249 249 250 250 250 249 247 246 246 247 248 248 248 249 249 249 249 249 250 251 252 253 253 253 252 251 249 246 243 241 239
280 279 278 278 277 276 275 275 274 273 272 271 271 270 269 268 267 267 266 265 264 263 262 261 260 259 258 258 258 258 257 257 257 256 256 255 254 253 252 251 251 251 251 251 251 251 251 251 251 252 252 252 251 251 250 250 250 250 250 250 248 246 245 245 246 246 246 246 247 247 247 247 248 248 249 250 250 250 251 251 250 250 248 245 241 239
281 280 279 278 277 276 276 275 274 273 272 272 271 270 269 268 267 266 266 265 264 263 262 261 260 259 258 257 257 257 257 256 256 256 256 255 254 253 252 251 250 250 250 250 250 250 250 250 250 250 251 251 251 250 250 250 250 250 250 250 249 247 245 245 245 246 245 245 245 245 245 245 246 246 246 247 247 248 248 248 248 248 248 246 243 240
281 280 279 278 277 277 276 275 274 273 272 272 271 270 269 268 267 266 265 265 264 263 262 261 260 259 258 257 257 256 256 256 255 255 255 255 254 253 252 251 250 250 249 249 249 249 249 249 249 249 249 249 249 249 249 249 249 250 250 250 249 248 246 246 246 245 245 244 244 244 244 244 243 243 243 244 244 245 245 245 245 246 246 246 245 242
282 281 279 278 277 277 276 275 274 273 272 271 271 270 269 268 267 266 265 265 264 263 262 261 260 259 258 257 256 256 255 255 255 254 254 254 254 254 253 252 251 250 249 248 248 248 248 248 248 248 248 248 248 248 248 248 248 249 249 250 250 249 248 247 246 246 245 245 244 244 244 243 243 242 242 242 242 242 242 242 242 243 243 243 243 243
282 281 280 279 278 277 276 275 274 273 272 271 270 270 269 268 267 266 265 264 263 263 262 261 260 259 258 257 256 256 255 254 254 254 254 253 253 253 253 252 251 250 249 248 248 247 247 247 247 247 247 247 247 247 247 247 247 248 248 249 249 249 248 248 247 247 246 246 245 244 244 244 243 243 242 242 242 241 240 240 240 240 240 240 240 241
282 281 280 279 278 277 276 275 274 273 272 271 270 270 269 268 267 266 265 264 263 263 262 261 260 259 258 257 256 256 255 254 254 253 253 253 252 252 252 252 252 251 250 249 248 247 247 246 246 246 246 246 246 246 246 246 246 246 247 248 248 248 248 247 247 247 247 246 246 245 244 244 244 243 243 243 242 241 240 238 238 238 238 238 238 238
282 281 280 279 278 277 276 275 274 273 272 271 270 269 269 268 267 266 265 264 263 262 262 261 260 259 258 257 256 256 255 254 253 253 252 252 251 251 251 251 251 251 250 249 248 247 246 246 246 245 245 245 245 245 245 245 245 245 246 246 246 247 247 246 246 246 246 246 246 245 244 244 244 243 243 243 243 242 241 238 237 236 236 236 236 236
283 282 281 280 279 277 276 275 274 273 272 271 270 270 269 268 267 266 265 264 263 262 261 261 260 259 258 257 256 256 255 254 253 253 252 251 251 251 250 250 250 250 250 250 249 248 247 246 245 245 244 244 244 244 244 244 244 244 244 245 245 245 245 245 245 245 245 245 245 245 245 244 243 243 243 243 243 243 242 240 237 235 234 234 235 235
Height
10594 10594 10594 10594 10592 10592 10591 10591 10591 10590 10588 10587 10587 10587 10586 10585 10585 10585 10586 10587 10587 10587 10589 10590 10591 10592 10593 10594 10595 10595 10595 10596 10596 10595 10594 10594 10595 10596 10596 10596 10596 10596 10595 10594 10594 10594 10595 10596 10596 10597 10600 10602 10604 10606 10607 10608 10609 10611 10611 10612 10614 10616 10617 10619 10619 10620 10621 10621 10621 10621 10621 10622 10622 10622 10623 10623 10623 10623 10623 10623 10624 10624 10624 10624 10625 10625
10587 10587 10588 10587 10587 10586 10584 10584 10584 10584 10583 10582 10582 10581 10581 10579 10579 10578 10579 10579 10579 10579 10581 10582 10583 10585 10586 10587 10589 10589 10589 10590 10591 10590 10589 10588 10588 10589 10590 10591 10591 10591 10591 10590 10589 10589 10589 10589 10589 10590 10592 10595 10597 10599 10601 10602 10603 10604 10605 10606 10607 10609 10610 10611 10613 10614 10615 10616 10616 10616 10617 10617 10617 10618 10619 10619 10619 10619 10619 10619 10619 10620 10621 10621 10621 10622
10579 10580 10580 10580 10580 10579 10578 10578 10578 10578 10577 10577 10576 10576 10575 10574 10573 10572 10572 10571 10571 10572 10572 10574 10576 10577 10579 10580 10582 10582 10583 10584 10584 10584 10584 10583 10582 10582 10583 10584 10585 10586 10586 10586 10585 10584 10583 10584 10584 10583 10584 10586 10589 10592 10594 10595 10596 10597 10599 10600 10601 10602 10604 10605 10606 10607 10609 10609 10611 10611 10612 10612 10613 10614 10614 10614 10614 10614 10614 10615 10616 10616 10617 10617 10617 10617
10571 10571 10571 10572 10572 10572 10572 10571 10571 10571 10571 10571 10571 10570 10569 10568 10567 10566 10566 10565 10564 10564 10564 10565 10567 10569 10571 10572 10574 10576 10576 10577 10577 10578 10579 10579 10578 10578 10578 10578 10579 10580 10581 10581 10581 10580 10579 10579 10579 10579 10578 10579 10581 10583 10586 10587 10589 10591 10592 10593 10594 10596 10597 10599 10600 10601 10602 10604 10604 10606 10606 10607 10608 10609 10609 10610 10611 10611 10610 10611 10612 10612 10612 10614 10614 10613
10562 10562 10562 10564 10564 10564 10564 10564 10564 10564 10564 10564 10564 10564 10564 10563 10562 10561 10561 10559 10558 10557 10556 10556 10557 10560 10562 10564 10566 10568 10569 10570 10571 10572 10572 10572 10572 10572 10572 10572 10573 10574 10575 10576 10576 10576 10576 10576 10576 10576 10575 10575 10575 10576 10579 10580 10582 10583 10585 10586 10588 10589 10591 10592 10594 10595 10596 10597 10599 10600 10601 10602 10603 10604 10606 10607 10607 10608 10608 10607 10607 10608 10609 10611 10612 10611
10554 10555 10555 10556 10556 10556 10556 10556 10557 10557 10557 10557 10557 10556 10557 10556 10556 10556 10555 10554 10552 10551 10549 10549 10550 10551 10554 10556 10558 10560 10561 10562 10563 10564 10566 10566 10566 10567 10566 10566 10567 10567 10568 10569 10570 10571 10572 10572 10572 10572 10572 10572 10572 10572 10574 10575 10576 10577 10579 10580 10582 10583 10584 10586 10587 10588 10589 10591 10592 10594 10596 10597 10598 10600 10602 10604 10604 10603 10603 10601 10602 10604 10606 10608 10607 10606
10546 10546 10547 10547 10547 10547 10548 10548 10548 10549 10549 10549 10549 10549 10549 10550 10550 10549 10548 10547 10546 10545 10544 10544 10544 10544 10546 10547 10549 10551 10553 10554 10556 10556 10557 10559 10560 10561 10560 10560 10561 10561 10562 10562 10564 10565 10566 10567 10568 10569 10569 10569 10569 10570 10571 10571 10572 10572 10574 10575 10576 10577 10579 10580 10581 10582 10584 10586 10587 10589 10591 10592 10593 10594 10597 10599 10600 10599 10597 10597 10597 10599 10602 10604 10602 10601
10537 10537 10538 10539 10539 10539 10540 10539 10540 10541 10541 10542 10541 10542 10542 10542 10542 10542 10541 10541 10539 10539 10537 10537 10537 10538 10539 10540 10542 10543 10544 10546 10547 10548 10549 10551 10552 10553 10553 10553 10554 10554 10556 10556 10557 10559 10560 10561 10562 10563 10564 10565 10566 10566 10567 10567 10568 10569 10570 10571 10572 10573 10574 10576 10577 10578 10579 10581 10582 10584 10586 10587 10589 10589 10590 10592 10593 10594 10593 10594 10594 10594 10597 10599 10598 10597
10529 10529 10529 10530 10531 10531 10531 10531 10531 10532 10533 10533 10533 10533 10534 10534 10534 10534 10534 10533 10532 10532 10531 10531 10531 10531 10532 10532 10534 10535 10536 10537 10539 10540 10541 10542 10544 10546 10546 10546 10546 10547 10548 10549 10551 10552 10553 10555 10556 10557 10558 10559 10560 10561 10562 10563 10564 10564 10566 10566 10567 10569 10570 10571 10572 10574 10575 10576 10577 10579 10581 10582 10583 10584 10586 10586 10587 10588 10587 10588 10589 10589 10591 10593 10593 10593
10520 10520 10521 10521 10521 10522 10522 10522 10522 10524 10525 10526 10525 10525 10526 10526 10526 10526 10526 10526 10525 10525 10526 10526 10525 10525 10525 10526 10526 10527 10527 10529 10531 10532 10534 10534 10536 10537 10539 10537 10537 10539 10541 10542 10544 10546 10547 10548 10549 10551 10552 10553 10554 10555 10556 10557 10558 10559 10561 10561 10562 10564 10565 10566 10567 10569 10570 10571 10572 10574 10575 10576 10577 10579 10580 10581 10582 10582 10583 10583 10584 10584 10585 10587 10588 10588
10511 10511 10512 10512 10512 10513 10514 10513 10514 10514 10516 10517 10516 10516 10517 10517 10518 10518 10518 10517 10517 10518 10519 10519 10518 10518 10518 10518 10518 10519 10520 10521 10523 10526 10528 10529 10529 10529 10529 10528 10530 10532 10534 10536 10537 10539 10540 10542 10543 10544 10545 10546 10547 10549 10549 10551 10552 10553 10554 10556 10557 10558 10559 10561 10562 10563 10564 10566 10567 10568 10569 10571 10572 10574 10575 10576 10577 10578 10579 10579 10579 10580 10580 10581 10582 10582
10502 10502 10502 10503 10504 10504 10504 10504 10505 10506 10507 10507 10506 10506 10507 10509 10510 10511 10511 10510 10510 10511 10511 10511 10511 10511 10511 10511 10511 10512 10513 10514 10516 10517 10521 10523 10524 10523 10520 10520 10521 10524 10527 10529 10530 10532 10533 10534 10536 10537 10538 10539 10541 10541 10542 10544 10545 10546 10548 10549 10551 10552 10554 10555 10556 10558 10559 10561 10562 10563 10564 10566 10567 10568 10569 10571 10572 10573 10574 10574 10575 10576 10576 10575 10575 10576
10492 10494 10494 10494 10494 10495 10496 10496 10496 10497 10497 10497 10497 10497 10498 10499 10502 10503 10503 10502 10502 10503 10504 10503 10503 10502 10502 10503 10504 10505 10506 10507 10507 10509 10512 10513 10514 10515 10514 10512 10512 10515 10519 10521 10522 10524 10526 10527 10527 10529 10530 10531 10532 10534 10535 10536 10537 10539 10541 10542 10544 10546 10547 10549 10551 10552 10554 10555 10556 10558 10559 10561 10562 10563 10564 10566 10567 10568 10569 10570 10571 10571 10571 10571 10570 10570
10484 10484 10485 10486 10486 10486 10487 10487 10487 10487 10488 10489 10489 10489 10490 10491 10493 10494 10494 10494 10494 10496 10496 10496 10495 10494 10494 10495 10497 10497 10498 10499 10501 10502 10504 10505 10506 10506 10506 10504 10503 10505 10510 10514 10515 10515 10517 10519 10519 10520 10522 10523 10524 10526 10527 10528 10529 10531 10532 10534 10536 10539 10541 10542 10544 10546 10547 10549 10551 10552 10554 10556 10557 10559 10560 10561 10562 10564 10565 10566 10566 10567 10567 10567 10566 10566
10475 10476 10476 10477 10477 10477 10478 10479 10479 10479 10479 10480 10481 10481 10482 10482 10484 10485 10486 10486 10487 10488 10489 10489 10487 10486 10486 10487 10488 10490 10491 10492 10493 10495 10496 10497 10498 10499 10499 10497 10496 10496 10500 10505 10506 10507 10508 10510 10511 10512 10513 10514 10516 10517 10519 10520 10521 10523 10524 10526 10529 10531 10533 10536 10537 10539 10541 10543 10545 10546 10548 10550 10551 10553 10554 10556 10557 10559 10560 10561 10562 10562 10562 10562 10562 10562
10466 10467 10467 10467 10468 10469 10469 10470 10471 10471 10471 10472 10472 10473 10473 10474 10474 10475 10477 10478 10479 10481 10482 10481 10479 10478 10477 10478 10480 10482 10484 10485 10486 10487 10489 10490 10491 10492 10492 10492 10490 10489 10491 10495 10498 10499 10499 10501 10502 10503 10504 10506 10507 10509 10510 10511 10512 10514 10516 10518 10521 10523 10526 10528 10531 10532 10534 10536 10538 10540 10542 10544 10546 10547 10549 10551 10552 10553 10554 10556 10557 10557 10558 10558 10558 10558
10458 10459 10459 10459 10459 10460 10461 10461 10462 10462 10462 10463 10464 10464 10464 10465 10466 10466 10468 10469 10471 10472 10474 10473 10472 10471 10470 10470 10472 10474 10476 10477 10477 10479 10481 10482 10482 10484 10486 10486 10484 10482 10484 10487 10489 10491 10492 10492 10493 10494 10496 10497 10499 10500 10501 10502 10504 10506 10508 10510 10512 10515 10518 10521 10523 10525 10527 10529 10531 10533 10535 10537 10539 10541 10542 10544 10546 10547 10549 10550 10552 10552 10553 10554 10554 10554
10450 10450 10450 10451 10451 10451 10452 10452 10453 10453 10454 10454 10455 10456 10456 10456 10457 10458 10459 10459 10461 10462 10464 10464 10464 10464 10462 10462 10462 10464 10467 10469 10469 10471 10472 10474 10474 10475 10477 10478 10477 10476 10477 10479 10481 10482 10484 10485 10485 10486 10487 10489 10491 10492 10493 10494 10496 10498 10500 10502 10504 10507 10509 10512 10514 10517 10519 10522 10524 10526 10528 10529 10531 10533 10536 10537 10539 10541 10542 10544 10546 10547 10548 10549 10549 10550
10442 10442 10442 10442 10442 10442 10443 10444 10444 10445 10446 10446 10446 10447 10447 10447 10448 10449 10450 10451 10452 10453 10454 10455 10456 10456 10455 10455 10454 10455 10458 10460 10461 10461 10464 10465 10465 10466 10467 10469 10469 10469 10469 10471 10472 10474 10476 10477 10477 10478 10479 10481 10482 10483 10484 10486 10487 10489 10492 10494 10496 10499 10501 10504 10506 10509 10511 10514 10516 10518 10520 10522 10524 10526 10528 10530 10532 10534 10536 10537 10539 10541 10542 10544 10544 10545
10433 10434 10434 10434 10434 10435 10435 10435 10436 10436 10437 10437 10437 10438 10438 10438 10439 10440 10440 10441 10442 10444 10445 10446 10446 10446 10447 10447 10446 10447 10449 10451 10452 10452 10454 10455 10456 10456 10457 10460 10461 10461 10462 10463 10465 10467 10469 10469 10469 10470 10472 10473 10474 10475 10476 10478 10479 10481 10483 10486 10488 10491 10493 10496 10498 10500 10502 10505 10507 10510 10512 10514 10516 10518 10520 10522 10524 10527 10529 10531 10532 10534 10536 10537 10539 10539
10425 10425 10425 10426 10427 10427 10426 10426 10427 10427 10428 10428 10429 10429 10429 10429 10429 10430 10431 10431 10432 10434 10435 10436 10436 10437 10438 10439 10439 10439 10439 10442 10443 10444 10444 10445 10446 10447 10447 10449 10451 10452 10453 10455 10457 10459 10461 10461 10461 10462 10464 10465 10467 10467 10469 10470 10471 10473 10475 10477 10480 10482 10485 10487 10489 10492 10494 10496 10499 10501 10504 10506 10508 10510 10512 10514 10517 10519 10521 10523 10525 10527 10529 10530 10532 10533
10417 10416 10416 10417 10418 10418 10417 10417 10418 10419 10419 10419 10419 10419 10419 10419 10420 10421 10421 10422 10423 10424 10424 10426 10426 10427 10429 10429 10429 10429 10431 10433 10434 10434 10435 10437 10437 10436 10437 10439 10441 10442 10444 10446 10448 10451 10452 10453 10454 10456 10456 10457 10459 10460 10461 10462 10463 10464 10467 10469 10472 10474 10476 10479 10481 10483 10486 10488 10490 10492 10495 10497 10499 10502 10504 10507 10509 10512 10514 10516 10518 10520 10522 10523 10525 10526
10409 10407 10407 10408 10408 10408 10408 10408 10409 10409 10409 10410 10410 10410 10410 10411 10411 10411 10411 10412 10412 10413 10414 10415 10416 10417 10419 10419 10419 10419 10422 10423 10424 10424 10427 10428 10427 10426 10428 10430 10431 10432 10433 10436 10439 10442 10444 10446 10446 10447 10449 10450 10451 10452 10454 10454 10455 10457 10459 10461 10463 10466 10468 10470 10472 10475 10477 10480 10482 10484 10487 10489 10491 10494 10496 10499 10501 10504 10506 10508 10511 10512 10514 10516 10517 10519
10401 10400 10399 10399 10399 10399 10399 10399 10399 10399 10400 10401 10401 10401 10401 10401 10401 10401 10401 10401 10402 10402 10403 10405 10406 10406 10407 10407 10408 10409 10411 10412 10414 10416 10417 10417 10417 10417 10419 10421 10421 10421 10423 10427 10431 10434 10436 10437 10438 10439 10441 10442 10442 10444 10445 10446 10447 10448 10450 10452 10454 10456 10459 10461 10464 10467 10469 10472 10474 10477 10479 10481 10484 10486 10488 10491 10493 10496 10498 10501 10502 10505 10507 10509 10510 10512
10392 10392 10391 10391 10391 10390 10389 10389 10389 10389 10390 10390 10391 10391 10392 10392 10392 10391 10391 10391 10392 10392 10392 10394 10394 10394 10394 10396 10398 10399 10399 10401 10404 10407 10407 10407 10408 10409 10410 10411 10412 10412 10412 10416 10422 10426 10427 10428 10429 10430 10432 10432 10434 10435 10436 10437 10438 10439 10441 10443 10445 10447 10449 10452 10455 10458 10461 10464 10466 10469 10471 10474 10476 10478 10481 10483 10486 10488 10490 10492 10495 10497 10499 10501 10502 10504
10384 10384 10383 10383 10382 10382 10381 10381 10380 10380 10380 10380 10381 10381 10382 10382 10382 10382 10382 10381 10381 10382 10383 10384 10383 10384 10384 10387 10388 10387 10388 10391 10394 10396 10397 10399 10399 10399 10400 10401 10402 10404 10404 10406 10412 10416 10419 10419 10419 10421 10422 10424 10425 10427 10428 10429 10430 10431 10433 10434 10436 10438 10440 10442 10446 10449 10452 10456 10459 10462 10464 10466 10469 10471 10474 10476 10478 10480 10482 10484 10487 10489 10491 10493 10495 10497
10374 10374 10374 10374 10374 10374 10374 10373 10372 10372 10371 10371 10371 10371 10372 10372 10372 10372 10371 10371 10372 10374 10374 10374 10373 10374 10375 10376 10376 10376 10377 10381 10384 10385 10387 10389 10391 10390 10389 10391 10393 10395 10395 10397 10401 10406 10411 10412 10411 10411 10412 10414 10416 10419 10422 10422 10424 10424 10426 10426 10427 10429 10431 10433 10436 10441 10444 10448 10451 10454 10457 10459 10461 10464 10466 10469 10471 10472 10475 10477 10479 10481 10483 10485 10487 10489
10364 10364 10364 10364 10364 10364 10364 10364 10364 10364 10364 10363 10363 10363 10363 10363 10362 10362 10361 10362 10364 10366 10366 10364 10364 10365 10366 10366 10366 10366 10368 10371 10372 10374 10377 10381 10381 10380 10379 10381 10384 10385 10385 10387 10390 10396 10401 10403 10402 10401 10402 10404 10407 10411 10414 10416 10417 10417 10417 10418 10419 10421 10423 10426 10428 10432 10436 10440 10443 10446 10449 10452 10454 10457 10459 10461 10464 10466 10467 10469 10471 10472 10475 10477 10480 10482
10355 10354 10354 10353 10353 10353 10353 10353 10354 10354 10354 10354 10355 10354 10354 10354 10354 10352 10351 10352 10356 10356 10355 10354 10356 10357 10357 10357 10357 10357 10359 10360 10361 10362 10367 10371 10371 10369 10369 10373 10375 10375 10375 10377 10381 10386 10391 10393 10393 10392 10392 10394 10398 10402 10406 10407 10408 10408 10409 10409 10411 10413 10416 10418 10421 10424 10427 10431 10435 10438 10441 10444 10446 10449 10451 10454 10456 10457 10459 10461 10463 10466 10468 10471 10473 10474
10347 10346 10346 10345 10344 10344 10343 10342 10342 10342 10343 10344 10344 10345 10346 10346 10345 10344 10343 10344 10346 10346 10344 10345 10347 10348 10348 10348 10349 10349 10348 10348 10349 10353 10358 10361 10359 10358 10361 10366 10366 10365 10366 10369 10373 10376 10379 10382 10383 10384 10384 10386 10389 10392 10395 10397 10397 10397 10399 10401 10402 10405 10407 10410 10412 10415 10419 10422 10426 10429 10432 10435 10438 10441 10443 10446 10447 10450 10452 10454 10456 10458 10461 10464 10466 10468
10337 10337 10337 10336 10336 10336 10334 10334 10332 10332 10332 10332 10332 10333 10334 10335 10336 10335 10335 10336 10336 10336 10335 10336 10337 10338 10339 10340 10340 10339 10337 10338 10341 10345 10349 10350 10349 10349 10354 10357 10356 10356 10358 10362 10365 10367 10368 10371 10373 10374 10376 10377 10381 10384 10387 10387 10388 10389 10390 10392 10395 10397 10399 10401 10404 10406 10409 10412 10416 10419 10422 10426 10429 10432 10435 10437 10439 10442 10444 10446 10448 10451 10453 10456 10459 10461
10327 10327 10327 10327 10327 10327 10326 10326 10324 10323 10322 10322 10322 10322 10322 10324 10324 10325 10326 10326 10327 10327 10327 10327 10327 10328 10329 10330 10330 10329 10328 10329 10332 10336 10339 10340 10339 10341 10346 10348 10347 10347 10350 10354 10357 10359 10360 10362 10363 10365 10367 10370 10372 10374 10378 10379 10379 10381 10382 10385 10387 10388 10390 10392 10395 10397 10400 10403 10406 10410 10413 10417 10420 10423 10426 10429 10431 10434 10436 10438 10441 10443 10446 10448 10451 10453
10316 10316 10316 10316 10316 10316 10316 10316 10316 10315 10314 10313 10312 10312 10312 10312 10313 10314 10314 10316 10317 10317 10317 10317 10317 10318 10319 10320 10320 10319 10319 10320 10322 10326 10329 10331 10331 10332 10335 10337 10338 10339 10341 10345 10349 10351 10353 10354 10354 10356 10359 10361 10364 10366 10369 10371 10371 10372 10374 10376 10378 10380 10382 10385 10387 10389 10392 10394 10397 10401 10404 10408 10411 10414 10417 10420 10423 10426 10428 10430 10432 10435 10438 10441 10444 10446
10306 10305 10304 10304 10304 10304 10305 10305 10306 10306 10306 10305 10304 10304 10303 10303 10303 10303 10303 10304 10306 10307 10307 10308 10308 10309 10309 10309 10309 10309 10309 10309 10311 10315 10320 10322 10322 10322 10324 10327 10328 10329 10332 10336 10339 10342 10346 10347 10347 10348 10350 10352 10355 10359 10362 10363 10362 10363 10364 10367 10370 10372 10374 10377 10381 10382 10384 10387 10390 10393 10396 10399 10402 10405 10408 10411 10414 10417 10419 10422 10424 10427 10431 10434 10436 10439
10296 10294 10294 10293 10293 10292 10292 10293 10294 10294 10295 10295 10295 10295 10294 10294 10293 10293 10292 10293 10294 10296 10296 10297 10298 10299 10300 10300 10300 10299 10298 10299 10301 10305 10310 10312 10312 10313 10316 10317 10317 10319 10323 10326 10329 10333 10337 10339 10339 10340 10341 10344 10347 10351 10354 10356 10356 10355 10356 10359 10362 10365 10367 10371 10373 10376 10377 10379 10382 10385 10387 10391 10394 10397 10400 10403 10406 10409 10412 10414 10417 10419 10422 10426 10429 10432
10286 10284 10283 10282 10282 10281 10281 10281 10281 10282 10282 10283 10284 10284 10285 10284 10284 10283 10283 10282 10283 10284 10285 10286 10287 10288 10289 10290 10290 10289 10289 10289 10291 10295 10299 10301 10302 10304 10307 10307 10307 10310 10314 10316 10319 10323 10328 10330 10331 10332 10334 10336 10339 10341 10344 10347 10349 10349 10349 10351 10354 10357 10360 10363 10366 10369 10371 10372 10374 10377 10379 10383 10386 10389 10392 10395 10398 10401 10404 10407 10409 10412 10415 10419 10422 10425
10275 10274 10272 10271 10271 10271 10269 10269 10269 10269 10270 10271 10271 10272 10274 10274 10274 10274 10273 10273 10273 10273 10273 10274 10275 10276 10278 10279 10279 10279 10279 10280 10282 10285 10287 10289 10291 10295 10297 10297 10298 10302 10306 10307 10309 10312 10318 10322 10324 10326 10327 10327 10329 10332 10336 10339 10342 10343 10342 10343 10347 10351 10354 10356 10359 10361 10364 10365 10367 10369 10371 10375 10378 10381 10384 10387 10391 10393 10396 10399 10402 10405 10408 10411 10414 10417
10264 10263 10262 10261 10260 10259 10258 10257 10257 10257 10257 10258 10259 10260 10261 10262 10262 10263 10263 10263 10262 10262 10262 10262 10262 10264 10266 10267 10268 10269 10269 10271 10272 10274 10276 10277 10281 10284 10286 10286 10289 10292 10296 10296 10299 10304 10309 10312 10316 10317 10318 10319 10321 10325 10328 10332 10334 10335 10333 10334 10339 10344 10347 10349 10352 10354 10356 10358 10359 10361 10364 10367 10370 10373 10376 10379 10382 10386 10389 10392 10395 10398 10401 10404 10407 10411
10254 10252 10251 10249 10249 10248 10247 10246 10246 10245 10245 10246 10246 10247 10248 10249 10250 10251 10252 10252 10252 10252 10252 10251 10251 10252 10253 10254 10256 10258 10259 10261 10262 10264 10266 10268 10271 10274 10276 10277 10279 10282 10284 10287 10290 10294 10299 10302 10305 10308 10311 10312 10314 10317 10320 10324 10326 10326 10326 10327 10332 10337 10339 10342 10344 10347 10349 10351 10353 10356 10357 10359 10362 10365 10368 10371 10374 10378 10381 10384 10387 10391 10394 10397 10400 10403
10243 10241 10240 10239 10237 10236 10236 10234 10234 10233 10233 10234 10234 10234 10235 10236 10237 10238 10239 10240 10241 10241 10241 10241 10241 10241 10241 10242 10244 10246 10247 10249 10251 10253 10256 10259 10261 10263 10266 10267 10270 10272 10274 10277 10281 10284 10287 10290 10294 10299 10302 10306 10307 10309 10311 10315 10316 10318 10320 10322 10326 10328 10331 10335 10338 10341 10342 10345 10347 10349 10351 10352 10355 10357 10360 10362 10366 10369 10372 10377 10381 10384 10387 10390 10392 10396
10232 10230 10228 10227 10226 10225 10224 10223 10222 10222 10221 10221 10221 10221 10222 10222 10224 10225 10226 10227 10229 10229 10230 10230 10230 10230 10229 10230 10231 10233 10235 10237 10239 10242 10245 10248 10251 10253 10256 10258 10260 10262 10265 10268 10271 10272 10275 10279 10283 10287 10292 10296 10299 10301 10304 10306 10308 10311 10314 10316 10317 10319 10323 10328 10332 10335 10337 10339 10341 10343 10345 10347 10349 10350 10352 10355 10358 10361 10364 10369 10372 10377 10380 10383 10386 10388
10221 10219 10217 10216 10214 10213 10212 10211 10210 10210 10209 10209 10209 10209 10209 10210 10211 10212 10213 10214 10216 10217 10218 10219 10219 10219 10219 10219 10219 10221 10222 10225 10227 10231 10234 10237 10240 10243 10246 10249 10251 10253 10256 10259 10261 10262 10265 10268 10271 10275 10280 10284 10288 10292 10295 10297 10300 10304 10306 10307 10309 10314 10319 10322 10324 10327 10331 10332 10334 10336 10338 10340 10342 10343 10345 10348 10351 10354 10357 10361 10364 10368 10372 10376 10379 10382
10209 10207 10206 10204 10202 10201 10200 10199 10198 10198 10197 10197 10197 10197 10197 10198 10199 10200 10201 10202 10203 10204 10206 10207 10208 10209 10208 10208 10209 10209 10211 10213 10216 10219 10222 10226 10229 10233 10236 10239 10241 10244 10247 10249 10251 10252 10254 10257 10261 10264 10267 10272 10277 10282 10284 10288 10292 10295 10296 10299 10303 10309 10314 10314 10315 10318 10322 10324 10326 10329 10331 10333 10334 10336 10339 10342 10344 10347 10351 10354 10356 10359 10364 10368 10372 10375
10197 10196 10194 10192 10191 10190 10189 10187 10187 10186 10186 10186 10186 10186 10186 10186 10187 10188 10189 10189 10191 10192 10194 10196 10197 10197 10198 10198 10198 10199 10201 10202 10204 10207 10210 10214 10217 10221 10225 10228 10231 10234 10237 10239 10241 10242 10245 10249 10251 10254 10256 10262 10267 10271 10274 10277 10282 10285 10286 10289 10294 10299 10302 10304 10307 10311 10315 10317 10319 10322 10324 10326 10329 10331 10333 10336 10339 10341 10344 10347 10349 10352 10356 10360 10364 10369
10186 10185 10184 10182 10181 10179 10177 10176 10176 10175 10175 10174 10174 10174 10175 10175 10176 10176 10177 10178 10179 10181 10182 10184 10185 10186 10187 10187 10187 10189 10191 10192 10193 10196 10198 10201 10205 10209 10213 10217 10220 10223 10226 10229 10231 10233 10236 10239 10242 10244 10247 10253 10258 10261 10264 10267 10271 10274 10277 10280 10284 10289 10292 10296 10300 10304 10306 10308 10311 10315 10317 10320 10323 10326 10328 10329 10332 10335 10338 10341 10344 10346 10349 10352 10356 10361
10176 10174 10173 10171 10170 10169 10167 10166 10165 10164 10164 10164 10163 10164 10164 10164 10165 10166 10166 10167 10168 10169 10170 10172 10174 10175 10176 10176 10177 10179 10181 10182 10183 10185 10187 10190 10193 10197 10201 10205 10209 10212 10216 10219 10221 10224 10227 10230 10232 10235 10239 10245 10249 10251 10254 10257 10261 10264 10267 10270 10274 10279 10283 10288 10291 10294 10296 10299 10304 10307 10310 10314 10317 10320 10322 10323 10326 10329 10332 10335 10337 10341 10343 10346 10349 10353
10164 10164 10162 10161 10160 10159 10157 10156 10155 10154 10153 10153 10152 10153 10153 10154 10154 10154 10155 10156 10157 10158 10159 10161 10162 10164 10164 10165 10167 10169 10171 10171 10172 10174 10177 10179 10182 10185 10189 10192 10197 10201 10205 10209 10212 10214 10217 10220 10222 10226 10231 10236 10239 10241 10244 10248 10252 10255 10257 10259 10264 10269 10274 10277 10281 10284 10287 10291 10296 10299 10302 10307 10311 10313 10314 10317 10320 10323 10326 10329 10332 10334 10337 10341 10344 10347
10154 10153 10152 10151 10150 10149 10147 10146 10145 10144 10144 10143 10142 10142 10142 10143 10144 10144 10144 10146 10146 10147 10149 10150 10151 10152 10154 10154 10156 10158 10160 10161 10162 10165 10167 10170 10172 10174 10177 10181 10185 10189 10194 10198 10202 10205 10207 10210 10213 10217 10221 10225 10227 10231 10234 10239 10242 10246 10247 10251 10255 10260 10264 10267 10271 10276 10279 10283 10286 10290 10294 10299 10302 10304 10307 10311 10314 10317 10321 10324 10326 10329 10332 10335 10339 10342
10144 10143 10142 10141 10140 10139 10137 10137 10136 10135 10134 10133 10133 10133 10133 10133 10134 10134 10134 10135 10136 10137 10138 10139 10141 10142 10143 10144 10146 10147 10149 10151 10153 10155 10157 10160 10162 10165 10167 10171 10174 10178 10182 10186 10191 10194 10198 10201 10204 10207 10211 10214 10217 10221 10226 10230 10234 10236 10239 10243 10247 10252 10255 10259 10263 10267 10271 10274 10277 10282 10286 10290 10293 10297 10301 10305 10307 10310 10314 10318 10321 10324 10326 10329 10332 10336
10134 10133 10132 10131 10130 10129 10128 10127 10127 10126 10125 10124 10124 10124 10124 10124 10124 10124 10125 10126 10126 10127 10128 10129 10131 10132 10133 10134 10136 10137 10139 10141 10142 10145 10147 10150 10153 10156 10158 10161 10163 10167 10171 10175 10179 10183 10187 10191 10194 10197 10200 10204 10208 10212 10216 10219 10224 10227 10231 10235 10239 10242 10247 10251 10255 10259 10262 10266 10269 10273 10278 10282 10286 10290 10295 10297 10300 10303 10307 10312 10316 10318 10321 10324 10327 10331
10126 10124 10123 10122 10121 10120 10119 10118 10117 10117 10116 10116 10115 10115 10115 10115 10115 10116 10116 10116 10117 10117 10119 10120 10121 10122 10123 10124 10126 10127 10129 10131 10133 10135 10137 10141 10144 10146 10149 10151 10154 10157 10160 10163 10167 10171 10176 10180 10183 10186 10189 10193 10197 10201 10205 10209 10213 10218 10222 10226 10229 10234 10239 10244 10247 10251 10255 10258 10262 10266 10270 10274 10278 10282 10287 10290 10293 10296 10301 10304 10308 10312 10316 10319 10322 10324